Location: Brodie Road Observatory
(45.4241°N, 74.5431°W)
Time: 11:53:54
(UTC-04:00)

Daily predictions for brighter satellites

Satellite Brightness Start Highest point End
(mag) Time Altitude Azimuth Time Altitude Azimuth Time Altitude Azimuth
CENTAUR R/B 4.4 21:15:48 10° NNW 21:22:22 30° NNE 21:29:30 10° E
Terra 3.8 21:25:23 10° E 21:28:07 15° ENE 21:30:53 10° NNE
Cosmos 1726 3.3 21:25:41 10° NNE 21:29:00 28° ENE 21:32:17 10° SE
Resurs 01 Rocket 2.9 21:25:23 10° SSW 21:29:33 40° W 21:33:45 10° NNW
Cosmos 1048 Rocket 4.2 21:24:54 10° SSW 21:30:14 83° WNW 21:35:39 10° NNE
Cosmos 921 Rocket 3.2 21:27:16 10° NNW 21:31:45 64° ENE 21:36:13 10° SSE
ERS-2 3.4 21:28:50 10° S 21:32:18 40° W 21:35:48 10° NNW
Cosmos 1825 Rocket 4.2 21:35:51 10° SSW 21:40:16 61° W 21:44:42 10° N
SL-8 R/B 3.8 21:36:48 10° SW 21:41:33 60° SSE 21:46:19 10° ENE
Cosmos 2278 Rocket 3.3 21:38:37 10° SSE 21:43:06 25° ESE 21:47:36 10° NE
ARGOS 3.2 21:37:42 10° SSE 21:43:08 88° WSW 21:48:36 10° NNW
Cosmos 1315 Rocket 3.5 21:41:09 10° SSW 21:45:09 59° WNW 21:49:15 10° N
Cosmos 1461 4.4 21:41:46 10° SSE 21:45:20 22° ESE 21:48:59 10° ENE
Iridium 81 4.4 21:44:48 10° SSE 21:47:08 39° E 21:49:59 10° NNE
MetOp-A 4.3 21:43:59 10° SSE 21:49:20 82° WSW 21:54:44 10° NNW
APEX 3.6 21:49:21 10° NNW 21:52:17 40° ENE 21:55:17 13° SE
Cosmos 1745 Rocket 4.4 21:47:20 10° N 21:53:30 51° ENE 21:59:18 11° SSE
COSMOS 2406 3.3 21:53:14 10° NNW 21:59:02 88° ENE 22:04:22 12° SSE
Cosmos 1844 Rocket 2.8 21:53:54 10° SSW 21:59:34 85° WNW 22:05:16 10° NNE
Cosmos 220 Rocket 4.4 21:55:39 10° S 21:59:37 41° ESE 22:03:36 10° NE
Cosmos 1844 3.7 22:00:12 10° SSW 22:05:54 84° ESE 22:11:43 10° NNE
SL-08 RB Rocket 4.1 22:01:48 10° S 22:06:25 66° WSW 22:11:05 10° NNW
ATLAS 3B R/B 2.6 22:00:29 10° NW 22:07:11 90° SW 22:12:52 14° SE
Cosmos 1110 Rocket 4.3 22:03:25 10° NNW 22:08:32 63° WSW 22:13:32 11° S
Cosmos 1238 Rocket 4.0 22:06:44 10° SW 22:09:24 31° WNW 22:12:16 10° N
CARTOSAT-1 4.4 22:06:45 14° SE 22:09:56 36° ENE 22:13:55 10° N
KORONAS-FOTON 3.8 22:06:07 10° S 22:10:00 82° E 22:13:58 10° N
SPOT 5 3.2 22:06:25 13° SSE 22:10:56 67° ENE 22:16:13 10° N
USA 238 DEB 4.0 22:04:12 10° NW 22:11:18 69° WSW 22:17:40 14° SSE
USA 238 4.0 22:04:19 10° NW 22:11:24 69° WSW 22:17:45 14° SSE
SL-14 R/B 4.0 22:09:27 15° SSE 22:12:11 36° E 22:15:49 10° NNE
Cosmos 1346 Rocket 4.2 22:10:37 10° NNW 22:14:20 37° W 22:18:03 10° SSW
Cosmos-2242 4.2 22:11:58 10° NNW 22:16:06 40° W 22:20:13 10° SSW
ATLAS 5 CENTAUR R/B 2.8 22:14:23 16° SSE 22:16:46 24° ESE 22:20:34 10° ENE
Lacrosse 5 3.0 22:12:24 10° WSW 22:17:19 49° NNW 22:22:15 10° NE
NOSS 3-2 (A) 4.1 22:15:25 10° NW 22:22:57 86° SW 22:29:42 17° SSE
S3M 4.0 22:16:45 10° S 22:23:06 83° E 22:29:32 10° N
SPOT 1/Viking Rocket 3.5 22:20:08 15° SSE 22:24:25 84° ENE 22:29:36 10° NNW
H-2A R/B 2.9 22:19:28 10° S 22:24:34 48° W 22:29:50 10° NNW
Cosmos 494 Rocket 4.4 22:19:42 10° SSW 22:24:55 68° WNW 22:30:12 10° NNE
Cosmos 1709 Rocket 4.5 22:20:46 10° N 22:26:45 46° ENE 22:31:05 18° SE
Cosmos 2082 Rocket 3.1 22:23:24 10° NNW 22:28:45 38° NE 22:33:00 15° ESE
Cosmos 1833 Rocket 3.4 22:24:12 10° NNW 22:29:33 43° ENE 22:33:38 16° ESE
Helios 1B rocket 2.7 22:27:02 10° NNE 22:31:02 49° E 22:33:41 20° S
Helios 1A 3.0 22:28:25 18° S 22:31:33 82° WSW 22:35:48 10° NNW
Cosmos 1626 3.1 22:31:41 23° SE 22:33:13 31° E 22:36:34 10° NNE
Cosmos 1842 Rocket 3.8 22:31:29 10° NNW 22:35:49 69° W 22:39:11 16° S
CZ-2C R/B 3.6 22:32:16 10° NNE 22:37:00 30° E 22:39:34 20° SE
Cosmos 1340 3.6 22:36:02 10° NNW 22:39:40 44° W 22:42:33 15° SSW
ATLAS 2AS CENTAUR R/B 3.7 22:32:31 10° SW 22:40:21 61° NW 22:48:26 10° NE
Aureole 3 Rocket 4.5 22:37:55 18° SSE 22:43:08 46° E 22:48:21 10° NNE
Cosmos 1553 Rocket 4.5 22:39:51 10° SSW 22:45:49 59° WNW 22:51:50 10° N
Landsat 7 3.9 22:42:27 19° S 22:45:51 75° WSW 22:50:38 10° NNW
Spot 1 4.1 22:46:00 24° SSE 22:48:38 79° ENE 22:53:19 10° NNW
NOSS 3-2 (C) 4.1 22:41:17 10° NW 22:48:49 82° SW 22:54:47 21° SSE
Cosmos 1302 Rocket 4.5 22:44:45 10° NNW 22:49:56 56° WSW 22:53:36 19° S
ERS-1 Rocket 4.2 22:46:48 10° SSW 22:51:24 35° W 22:56:02 10° NNW
Cosmos 1455 3.4 22:54:28 10° NNE 22:57:50 29° ENE 22:59:05 24° ESE
Cosmos 1300 3.3 22:55:34 10° NNW 22:59:19 53° W 23:01:28 23° SSW
Cosmos 883 Rocket 4.5 22:55:17 16° S 23:00:25 88° E 23:06:43 10° N
Cosmos 1726 4.4 23:01:16 10° NW 23:04:05 20° W 23:06:54 10° SW
Cosmos 2251 Rocket 4.0 22:58:49 10° SSW 23:04:06 61° WNW 23:09:23 10° NNE
Terra 1.9 23:02:30 25° S 23:05:18 73° WSW 23:10:04 10° NNW
Cosmos 2221 2.8 23:01:30 10° NNW 23:05:47 62° W 23:08:10 25° SSW
Cosmos 1992 Rocket 4.0 23:00:41 10° NNW 23:05:55 74° ENE 23:08:42 28° SSE
Cosmos 2315 Rocket 4.0 23:02:11 20° S 23:06:41 76° E 23:13:04 10° N
RESURS DK-1 2.9 23:06:04 33° SE 23:07:03 38° ESE 23:10:55 10° NE
Okean 3 Rocket 3.5 23:06:52 29° S 23:08:59 70° E 23:13:22 10° NNE
COBE Rocket 4.5 23:09:09 10° NNE 23:14:01 44° E 23:16:06 30° SSE
Meteor 1-29 3.2 23:10:42 10° N 23:14:05 63° WNW 23:15:43 27° SSW
H-2A R/B 4.4 23:09:34 19° S 23:14:07 28° SE 23:44:27 10° E
CENTAUR R/B 3.2 23:06:20 10° NW 23:14:16 81° NE 23:20:12 22° SE
NOSS 2-2 (E) 3.3 23:11:46 16° SSW 23:14:51 83° SE 23:19:24 10° NE
NOSS 3-4 (A) 3.5 23:11:12 10° SW 23:17:23 83° NW 23:23:55 10° NE
NOSS 3-4 (C) 3.5 23:11:17 10° SW 23:17:28 84° NW 23:24:00 10° NE
Cosmos 1328 Rocket 4.4 23:15:15 10° N 23:19:18 37° ENE 23:20:48 28° ESE
Cosmos 2184 Rocket 4.5 23:14:17 10° N 23:20:26 49° ENE 23:23:43 26° SE
CZ-2C R/B 3.6 23:19:33 24° S 23:23:06 65° W 23:28:49 10° NNW
Cosmos 1328 3.9 23:21:27 29° SSW 23:23:19 71° W 23:27:18 10° N
Meteor 1-11 4.3 23:20:56 28° S 23:24:03 69° E 23:29:51 10° NNE
Cosmos 1461 3.9 23:19:34 10° SW 23:24:09 54° NW 23:28:52 10° NNE
SL-8 R/B 4.1 23:19:20 10° W 23:24:09 65° N 23:28:58 10° ENE
SAR-Lupe-4 4.1 23:23:20 37° ESE 23:24:13 46° ENE 23:27:40 10° N
Cosmos 2278 Rocket 2.9 23:21:14 10° SW 23:26:47 55° WNW 23:32:23 10° NNE
ATLAS 3B CENTAUR R/B 4.3 23:24:23 10° SW 23:34:21 23° S 23:35:03 23° S
Spot 4 3.8 23:33:05 36° SSE 23:35:08 85° ENE 23:40:02 10° NNW
Cosmos 407 Rocket 4.0 23:35:40 34° SE 23:37:08 42° ESE 23:42:00 10° NE
Cosmos 1441 Rocket 3.4 23:35:04 10° N 23:38:50 58° ENE 23:39:34 47° SE
SAR-Lupe-1 4.2 23:41:45 52° SE 23:42:23 65° ENE 23:45:58 10° N
NOSS 2-2 (D) 3.8 23:42:34 14° SW 23:45:47 62° NW 23:50:18 10° NNE
Cosmos 1500 Rocket 4.3 23:50:19 34° ESE 23:51:02 37° E 23:55:02 10° NNE
Cosmos 1190 Rocket 4.1 23:49:20 38° SSE 23:51:05 58° ESE 23:56:12 10° NNE
Cosmos 405 Rocket 2.7 23:47:29 10° N 23:51:10 61° ENE 23:51:43 53° ESE
